リニア彗星

402P/LINEAR (2003)

English version
Home page
Updated on May 17, 2021

---------------------------------------------------------------------

・ プロフィール

符号 402P/2002 T5
発見日 2002年10月5日
発見光度 18.4等
発見者 Lincoln Laboratory Near-Earth Asteroid Research project

・ 写真集

・ 軌道要素

Epoch 2003 June 10.0 TT = JDT 2452800.5                                         
T 2003 June 27.85333 TT                                 Rudenko                 
q   3.9340554            (2000.0)            P               Q                  
n   0.05340169     Peri.  326.75881     -0.06659731     -0.90078643             
a   6.9839224      Node   123.33130     +0.99023709     -0.11245170             
e   0.4366983      Incl.   30.90463     +0.12245531     +0.41945015             
P  18.5                                                                         
From 1012 observations 2002 Oct. 5-2020 Aug. 19, mean residual 0".7.            

・ 星図

・ 光度変化

        m1 = 6.0 + 5 logΔ + 12.5 log r

---------------------------------------------------------------------

軌道要素はM.P.E.C. 2020-Q175に掲載されたものです。
星図は StellaNavigator Ver.2.0 for Windows (アストロアーツ 編著 / アスキー出版局刊) で作成したものです。
光度グラフはComet for Windowsで作成したものです。

---------------------------------------------------------------------

Copyright(C) Seiichi Yoshida (comet@aerith.net). All rights reserved.